Location: Unspecified
(0.0000°N, 0.0000°E)
Time: 22:17:45
(UTC+00:00)

Hubble Space Telescope - Pass Details

Date: 01 December 2022
Orbit: 530 x 534 km, 28.5° (Epoch: 01 December)

Event Time Altitude Azimuth Distance (km) Brightness Sun altitude
Rises 18:18:32 0° 266° (W) 2,659 6.0 -6.8°
Reaches altitude 10° 18:21:44 10° 240° (WSW) 1,772 5.1 -7.6°
Maximum altitude 18:23:53 14° 208° (SSW) 1,539 3.9 -8.1°
Drops below altitude 10° 18:26:04 10° 175° (S) 1,774 3.7 -8.6°
Sets 18:29:16 0° 149° (SSE) 2,665 4.2 -9.3°
